Content
SEND FEEDBACK

Daily
Averages
Monthly
Summary
United States of America

DEDEDO, GUAM


Home > North America > United States > Guam
Elevation: 111 meters     Latitude: 13 33N     Longitude: 144 49E

WEATHER
 
SELECT A DAY
Number of Records: 208,807;   Date Range: 1/1/95 - 7/7/14
 
SHARE

PRINT THIS DATA

[ ← Previous Day ]
WEATHER ALMANAC - 9 NOVEMBER, 2013
[ Next Day → ]
[ °F ]   °C
Weather ElementAverageHighLow
Temperature28.3 °C31.1 °C (11:54 am)26.7 °C (1:54 am)
Dewpoint24.1 °C25 °C (3:54 pm)22.8 °C (11:54 pm)
Humidity78.3 %88 % (3:54 pm)63 % (11:54 am)
Barometer1010.5 hPa1012.2 hPa (8:54 am)1009.1 hPa (2:54 pm)
Wind Speed25.3 km/h33.3 km/h (12:54 pm)
Wind Gust50.1 km/h (8:54 am)
Weather ElementAverage
Visibility15.9 km
Wind DirectionENE (67.4 °)

Weather ElementTotal
Precipitation0.76 mm
Cooling Degree Days10.6 (Base 18.3)
Growing Degree Days18.9 (Base 10)
Averaged from 23 records on 9 November, 2013
WEATHER CONDITIONS BREAKOUT
WIND DIRECTION BREAKOUT
WEATHER BY HOUR - 9 NOVEMBER, 2013
[ °F ]   °C
Local TimeTemperatureDewpointHumidityBarometerVisibilityWind DirectionWind SpeedGust SpeedPrecipitationEventsConditions
1:54 AM26.7 °C24.4 °C87 %1010.8 hPa16.1 kmENE (60°)22.2 km/h0.25 mmScattered Clouds
2:54 AM27.2 °C24.4 °C85 %1010.5 hPa16.1 kmENE (60°)22.2 km/hClear
3:54 AM27.2 °C24.4 °C85 %1010.2 hPa16.1 kmENE (60°)22.2 km/hPartly Cloudy
4:54 AM27.2 °C23.9 °C82 %1010.2 hPa16.1 kmENE (60°)16.7 km/hScattered Clouds
5:54 AM27.2 °C23.9 °C82 %1010.8 hPa16.1 kmENE (60°)20.4 km/hPartly Cloudy
6:54 AM27.2 °C24.4 °C85 %1011.2 hPa16.1 kmENE (60°)20.4 km/h0 mmClear
7:54 AM27.8 °C24.4 °C82 %1011.9 hPa16.1 kmENE (70°)27.8 km/h48.1 km/h0 mmPartly Cloudy
8:54 AM28.9 °C23.9 °C74 %1012.2 hPa16.1 kmENE (70°)31.5 km/h50.1 km/hClear
9:54 AM30 °C24.4 °C72 %1012.2 hPa16.1 kmENE (70°)27.8 km/h44.4 km/hPartly Cloudy
10:54 AM30.6 °C24.4 °C69 %1011.5 hPa16.1 kmENE (70°)31.5 km/h38.9 km/hMostly Cloudy
11:54 AM31.1 °C23.3 °C63 %1010.5 hPa16.1 kmENE (70°)29.6 km/h44.4 km/hClear
12:54 PM31.1 °C23.3 °C63 %1009.8 hPa16.1 kmENE (70°)33.3 km/h46.3 km/hClear
1:54 PM31.1 °C23.9 °C65 %1009.5 hPa16.1 kmEast (80°)33.3 km/h44.4 km/hPartly Cloudy
2:54 PM30.6 °C23.9 °C67 %1009.1 hPa16.1 kmEast (80°)33.3 km/h48.1 km/hPartly Cloudy
3:54 PM27.2 °C25 °C88 %1009.5 hPa16.1 kmENE (70°)27.8 km/h38.9 km/h0.25 mmMostly Cloudy
4:54 PM28.3 °C23.3 °C74 %1009.5 hPa16.1 kmENE (70°)22.2 km/h0 mmMostly Cloudy
5:54 PM27.8 °C23.9 °C79 %1009.5 hPa16.1 kmENE (60°)16.7 km/hScattered Clouds
6:54 PM28.3 °C24.4 °C79 %1010.2 hPa16.1 kmENE (70°)22.2 km/hScattered Clouds
7:54 PM27.2 °C24.4 °C85 %1011.2 hPa11.3 kmENE (60°)25.9 km/h35.2 km/h0.25 mmRainLight Rain
8:54 PM27.2 °C25 °C88 %1011.5 hPa16.1 kmENE (60°)25.9 km/h0 mmRainLight Rain
9:54 PM26.7 °C24.4 °C87 %1011.2 hPa16.1 kmENE (60°)18.5 km/h0 mmMostly Cloudy
10:54 PM27.2 °C23.9 °C82 %1011.2 hPa16.1 kmEast (80°)24.1 km/h37 km/hScattered Clouds
11:54 PM27.2 °C22.8 °C77 %1010.5 hPa16.1 kmEast (80°)25.9 km/hPartly Cloudy
Hourly data recorded from PGUM, located 0 kilometers away from Dededo, Guam







STORIES FROM OUR PARTNERS